UAE213 OMDB-KMIA

Flight info

Callsign UAE213
Flight time N/A
Altitude 30000
Route DAVMO M318 GABKO N440 RADEB M317 ROTAL P574 KASOL A418 SYZ P550 VUVAG R660 BORES L333 DASIS UL746 ODERO L621 REVDA DCT CND DCT RIVOS DCT EDETA DCT ELROM DCT NARKA DCT AMRAX DCT ODNEM DCT ELMEK DCT VEXIL DCT KATCE DCT HMM L602 SPY DCT RAVLO Y70 OTBED L60 PENIL M144 BAGSO DCT LIMRI/M083F300 DCT 53N020W 53N030W 53N040W 52N050W DCT TUDEP/N0487F300 N522E ALLEX DCT FOXBO DCT RIFLE DCT HEADI Q97 KALDA DCT BGBRD Q101 SKARP Y313 HOAGG BNFSH3
Aircraft B77W/H-SDE1E2E3FGHIJ2J3J4J5M1RWXY/LB1D1

Departure

Time N/A
Airport Dubai International Airport (OMDB)

Arrival

Time 2026-05-06 12:15
Airport Miami International Airport (KMIA)
Time Latitude Longitude Altitude Speed Heading
2026-05-06 09:04 45.60970 -65.01680 36954 ft 451 kts 232°
2026-05-06 09:04 45.56979 -65.08544 36942 ft 447 kts 232°
2026-05-06 09:05 45.52984 -65.15400 36954 ft 451 kts 232°
2026-05-06 09:05 45.48976 -65.22260 36961 ft 452 kts 232°
2026-05-06 09:06 45.44981 -65.29083 36945 ft 447 kts 232°
2026-05-06 09:06 45.40992 -65.35880 36961 ft 448 kts 232°
2026-05-06 09:07 45.36961 -65.42731 36954 ft 451 kts 232°
2026-05-06 09:07 45.32944 -65.49540 36948 ft 451 kts 232°
2026-05-06 09:08 45.28906 -65.56368 36969 ft 452 kts 232°
2026-05-06 09:08 45.24895 -65.63135 36955 ft 448 kts 232°
2026-05-06 09:09 45.20875 -65.69899 36960 ft 451 kts 231°
2026-05-06 09:09 45.16811 -65.76723 36961 ft 452 kts 231°
2026-05-06 09:10 45.12748 -65.83529 36964 ft 450 kts 231°
2026-05-06 09:10 45.08695 -65.90301 36956 ft 454 kts 231°
2026-05-06 09:11 45.04615 -65.97103 36967 ft 452 kts 231°
2026-05-06 09:11 45.00565 -66.03835 36962 ft 450 kts 231°
2026-05-06 09:12 44.96476 -66.10620 36991 ft 455 kts 232°
2026-05-06 09:12 44.92406 -66.17355 36963 ft 451 kts 231°
2026-05-06 09:13 44.88484 -66.23830 36951 ft 449 kts 231°
2026-05-06 09:13 44.84452 -66.30472 36976 ft 451 kts 232°
2026-05-06 09:14 44.80387 -66.37150 36980 ft 448 kts 232°
2026-05-06 09:14 44.76328 -66.43806 36980 ft 453 kts 231°
2026-05-06 09:15 44.72219 -66.50526 36976 ft 450 kts 231°
2026-05-06 09:15 44.68163 -66.57143 36968 ft 449 kts 231°
2026-05-06 09:16 44.64096 -66.63764 36979 ft 449 kts 232°
2026-05-06 09:16 44.60142 -66.70186 36985 ft 452 kts 231°
2026-05-06 09:17 44.56054 -66.76811 36973 ft 447 kts 231°
2026-05-06 09:17 44.51958 -66.83431 36983 ft 450 kts 231°
2026-05-06 09:18 44.47840 -66.90076 37297 ft 454 kts 231°
2026-05-06 09:18 44.45780 -66.93390 37869 ft 449 kts 231°
2026-05-06 09:18 44.43753 -66.96648 37959 ft 449 kts 231°
2026-05-06 09:19 44.39483 -67.02837 37979 ft 447 kts 227°
2026-05-06 09:19 44.35107 -67.08945 37944 ft 446 kts 227°
2026-05-06 09:20 44.30682 -67.15074 37960 ft 448 kts 227°
2026-05-06 09:20 44.26263 -67.21155 38000 ft 447 kts 227°
2026-05-06 09:21 44.21831 -67.27230 37945 ft 449 kts 227°
2026-05-06 09:21 44.17438 -67.33233 37937 ft 449 kts 227°
2026-05-06 09:21 44.15222 -67.36256 38175 ft 451 kts 227°
2026-05-06 09:22 44.12985 -67.39303 37742 ft 448 kts 227°
2026-05-06 09:22 44.10755 -67.42334 37989 ft 447 kts 227°
2026-05-06 09:22 44.08529 -67.45359 37965 ft 451 kts 227°
2026-05-06 09:23 44.04063 -67.51414 37930 ft 449 kts 227°
2026-05-06 09:23 44.01828 -67.54442 38149 ft 451 kts 227°
2026-05-06 09:23 43.99580 -67.57483 37676 ft 448 kts 227°
2026-05-06 09:23 43.97387 -67.60443 37914 ft 445 kts 227°
2026-05-06 09:24 43.95147 -67.63467 38058 ft 451 kts 227°
2026-05-06 09:24 43.92899 -67.66498 37943 ft 448 kts 226°
2026-05-06 09:24 43.90658 -67.69514 37937 ft 449 kts 226°
2026-05-06 09:25 43.86384 -67.75259 37958 ft 450 kts 226°
2026-05-06 09:25 43.81954 -67.81200 37963 ft 451 kts 227°
2026-05-06 09:26 43.77484 -67.87183 37949 ft 451 kts 227°
2026-05-06 09:26 43.72961 -67.93222 37979 ft 451 kts 227°
2026-05-06 09:27 43.68447 -67.99237 37948 ft 451 kts 227°
2026-05-06 09:27 43.63927 -68.05247 37956 ft 452 kts 227°
2026-05-06 09:28 43.59425 -68.11217 37955 ft 451 kts 227°
2026-05-06 09:28 43.54903 -68.17203 37957 ft 452 kts 227°
2026-05-06 09:29 43.50397 -68.23154 37957 ft 452 kts 227°
2026-05-06 09:29 43.45845 -68.29154 37979 ft 454 kts 227°
2026-05-06 09:29 43.43650 -68.32042 37677 ft 453 kts 227°
2026-05-06 09:30 43.41504 -68.34862 37885 ft 450 kts 227°
2026-05-06 09:30 43.39247 -68.37825 38178 ft 454 kts 227°
2026-05-06 09:30 43.36974 -68.40808 37701 ft 454 kts 227°
2026-05-06 09:30 43.34703 -68.43782 37962 ft 452 kts 227°
2026-05-06 09:31 43.32401 -68.46796 37968 ft 455 kts 227°
2026-05-06 09:31 43.27835 -68.52761 37970 ft 456 kts 228°
2026-05-06 09:32 43.23252 -68.58736 37963 ft 455 kts 227°
2026-05-06 09:32 43.18685 -68.64677 37971 ft 454 kts 227°
2026-05-06 09:33 43.14088 -68.70644 37974 ft 457 kts 227°
2026-05-06 09:33 43.09468 -68.76628 37978 ft 457 kts 227°
2026-05-06 09:34 43.04890 -68.82544 37954 ft 455 kts 227°
2026-05-06 09:34 43.00281 -68.88488 37985 ft 457 kts 227°
2026-05-06 09:35 42.95651 -68.94445 37965 ft 456 kts 227°
2026-05-06 09:35 42.91031 -69.00381 37970 ft 458 kts 227°
2026-05-06 09:36 42.86386 -69.06331 37975 ft 457 kts 227°
2026-05-06 09:36 42.82400 -69.11429 37979 ft 458 kts 228°
2026-05-06 09:37 42.77760 -69.17348 38007 ft 459 kts 227°
2026-05-06 09:37 42.73119 -69.23258 37980 ft 458 kts 227°
2026-05-06 09:38 42.68437 -69.29206 37966 ft 460 kts 227°
2026-05-06 09:38 42.63786 -69.35104 37968 ft 460 kts 228°
2026-05-06 09:39 42.59102 -69.41029 37976 ft 461 kts 227°
2026-05-06 09:39 42.54438 -69.46915 37961 ft 458 kts 228°
2026-05-06 09:40 42.49775 -69.52791 37972 ft 459 kts 228°
2026-05-06 09:40 42.42740 -69.61629 37966 ft 460 kts 228°
2026-05-06 09:41 42.38072 -69.67479 37987 ft 460 kts 227°
2026-05-06 09:41 42.33372 -69.73354 37978 ft 460 kts 227°
2026-05-06 09:42 42.28664 -69.79229 37986 ft 460 kts 227°
2026-05-06 09:42 42.23959 -69.85088 37977 ft 461 kts 227°
2026-05-06 09:43 42.19254 -69.90932 37960 ft 460 kts 227°
2026-05-06 09:43 42.14528 -69.96792 37971 ft 462 kts 227°
2026-05-06 09:44 42.09812 -70.02625 37935 ft 459 kts 227°
2026-05-06 09:44 42.07452 -70.05540 38207 ft 461 kts 227°
2026-05-06 09:44 42.05085 -70.08461 37922 ft 460 kts 227°
2026-05-06 09:45 42.02736 -70.11357 38060 ft 462 kts 227°
2026-05-06 09:45 42.00375 -70.14264 37981 ft 461 kts 228°
2026-05-06 09:45 41.95678 -70.20038 37990 ft 461 kts 228°
2026-05-06 09:46 41.91113 -70.26063 37988 ft 455 kts 236°
2026-05-06 09:46 41.87512 -70.32965 37987 ft 452 kts 241°
2026-05-06 09:47 41.84002 -70.39970 38026 ft 451 kts 241°
2026-05-06 09:47 41.80483 -70.46932 38010 ft 452 kts 240°
2026-05-06 09:48 41.76967 -70.53848 38017 ft 454 kts 240°
2026-05-06 09:48 41.73398 -70.60835 38013 ft 453 kts 240°
2026-05-06 09:49 41.69848 -70.67767 38004 ft 453 kts 240°
2026-05-06 09:49 41.66257 -70.74760 38013 ft 456 kts 240°
2026-05-06 09:50 41.62671 -70.81722 38019 ft 454 kts 240°
2026-05-06 09:50 41.59079 -70.88681 37990 ft 454 kts 240°
2026-05-06 09:51 41.55505 -70.95589 38002 ft 455 kts 240°
2026-05-06 09:51 41.51924 -71.02492 38009 ft 456 kts 240°
2026-05-06 09:52 41.48320 -71.09427 37967 ft 456 kts 240°
2026-05-06 09:52 41.44694 -71.16386 37974 ft 454 kts 240°
2026-05-06 09:53 41.41099 -71.23271 37971 ft 453 kts 240°
2026-05-06 09:53 41.37498 -71.30154 37973 ft 454 kts 240°
2026-05-06 09:54 41.33951 -71.36917 37975 ft 454 kts 240°
2026-05-06 09:54 41.30335 -71.43797 37982 ft 455 kts 240°
2026-05-06 09:55 41.26724 -71.50649 37983 ft 454 kts 240°
2026-05-06 09:55 41.23105 -71.57503 37974 ft 453 kts 240°
2026-05-06 09:56 41.19487 -71.64342 37967 ft 455 kts 240°
2026-05-06 09:56 41.15857 -71.71184 37993 ft 450 kts 240°
2026-05-06 09:57 41.12239 -71.77994 38008 ft 454 kts 240°
2026-05-06 09:57 41.08604 -71.84815 38000 ft 454 kts 240°
2026-05-06 09:58 41.04947 -71.91665 37994 ft 454 kts 240°
2026-05-06 09:58 41.01321 -71.98447 37988 ft 455 kts 240°
2026-05-06 09:59 40.97757 -72.05091 37998 ft 450 kts 240°
2026-05-06 09:59 40.94121 -72.11856 37987 ft 454 kts 240°
2026-05-06 10:00 40.90475 -72.18626 37986 ft 453 kts 240°
2026-05-06 10:00 40.86858 -72.25321 37975 ft 450 kts 240°
2026-05-06 10:01 40.83182 -72.32119 37975 ft 452 kts 240°
2026-05-06 10:01 40.79577 -72.38767 37969 ft 449 kts 241°
2026-05-06 10:02 40.75918 -72.45506 37976 ft 451 kts 241°
2026-05-06 10:02 40.72294 -72.52159 37971 ft 445 kts 241°
2026-05-06 10:03 40.68623 -72.58774 37972 ft 450 kts 238°
2026-05-06 10:03 40.64675 -72.65121 37968 ft 450 kts 237°
2026-05-06 10:04 40.60670 -72.71522 37951 ft 452 kts 237°
2026-05-06 10:04 40.56677 -72.77889 37960 ft 452 kts 237°
2026-05-06 10:05 40.52689 -72.84233 37960 ft 451 kts 237°
2026-05-06 10:05 40.48695 -72.90575 37959 ft 449 kts 237°
2026-05-06 10:06 40.44713 -72.96885 37958 ft 449 kts 238°
2026-05-06 10:06 40.40779 -73.03108 37952 ft 451 kts 237°
2026-05-06 10:07 40.36825 -73.09345 37970 ft 448 kts 238°
2026-05-06 10:07 40.32844 -73.15617 37960 ft 450 kts 238°
2026-05-06 10:08 40.28845 -73.21905 37959 ft 448 kts 238°
2026-05-06 10:08 40.24930 -73.28046 37962 ft 448 kts 238°
2026-05-06 10:09 40.20977 -73.34232 37952 ft 447 kts 238°
2026-05-06 10:09 40.16989 -73.40462 37949 ft 447 kts 238°
2026-05-06 10:10 40.12988 -73.46700 37954 ft 445 kts 238°
2026-05-06 10:10 40.09029 -73.52861 37946 ft 448 kts 238°
2026-05-06 10:11 40.05003 -73.59115 37952 ft 448 kts 238°
2026-05-06 10:11 40.01008 -73.65305 37952 ft 447 kts 238°
2026-05-06 10:12 39.96566 -73.71116 37967 ft 460 kts 226°
2026-05-06 10:12 39.91227 -73.75185 37939 ft 477 kts 212°
2026-05-06 10:13 39.85066 -73.78511 37956 ft 483 kts 211°
2026-05-06 10:13 39.78834 -73.81829 37953 ft 484 kts 211°
2026-05-06 10:14 39.72635 -73.85123 37950 ft 482 kts 211°
2026-05-06 10:14 39.66408 -73.88428 37961 ft 485 kts 212°
2026-05-06 10:15 39.60148 -73.91741 37959 ft 485 kts 212°
2026-05-06 10:15 39.53923 -73.95029 37976 ft 484 kts 212°
2026-05-06 10:16 39.47665 -73.98330 37961 ft 484 kts 212°
2026-05-06 10:16 39.41594 -74.01892 37977 ft 474 kts 220°
2026-05-06 10:17 39.36412 -74.06969 37979 ft 465 kts 229°
2026-05-06 10:17 39.31506 -74.12334 37968 ft 461 kts 229°
2026-05-06 10:18 39.26643 -74.17643 37986 ft 462 kts 230°
2026-05-06 10:18 39.21741 -74.22976 37954 ft 456 kts 230°
2026-05-06 10:19 39.16882 -74.28256 37978 ft 457 kts 229°
2026-05-06 10:19 39.11992 -74.33558 37977 ft 459 kts 229°
2026-05-06 10:20 39.07136 -74.38811 37969 ft 462 kts 230°
2026-05-06 10:20 39.02227 -74.44109 37955 ft 455 kts 230°
2026-05-06 10:21 38.97369 -74.49345 37974 ft 459 kts 230°
2026-05-06 10:21 38.92516 -74.54618 37965 ft 457 kts 232°
2026-05-06 10:22 38.87845 -74.60126 37955 ft 460 kts 232°
2026-05-06 10:22 38.83129 -74.65675 37958 ft 459 kts 232°
2026-05-06 10:23 38.78448 -74.71156 37968 ft 459 kts 232°
2026-05-06 10:23 38.73670 -74.76687 37977 ft 464 kts 229°
2026-05-06 10:24 38.68683 -74.81860 37968 ft 463 kts 229°
2026-05-06 10:24 38.63647 -74.87064 37972 ft 463 kts 229°
2026-05-06 10:25 38.58625 -74.92264 37986 ft 466 kts 228°
2026-05-06 10:25 38.53648 -74.97411 37972 ft 462 kts 229°
2026-05-06 10:26 38.48730 -75.02772 37973 ft 462 kts 231°
2026-05-06 10:26 38.43808 -75.08009 38013 ft 469 kts 226°
2026-05-06 10:27 38.38535 -75.12959 38010 ft 473 kts 226°
2026-05-06 10:27 38.33269 -75.17911 38011 ft 468 kts 226°
2026-05-06 10:28 38.28005 -75.22879 38013 ft 473 kts 226°
2026-05-06 10:28 38.22777 -75.27810 38004 ft 471 kts 227°
2026-05-06 10:29 38.17502 -75.32783 37983 ft 468 kts 227°
2026-05-06 10:29 38.12268 -75.37711 37991 ft 469 kts 227°
2026-05-06 10:30 38.07028 -75.42639 38020 ft 468 kts 226°
2026-05-06 10:30 38.01742 -75.47445 38019 ft 474 kts 225°
2026-05-06 10:31 37.96419 -75.52055 38008 ft 471 kts 225°
2026-05-06 10:31 37.91328 -75.56473 38011 ft 474 kts 225°
2026-05-06 10:32 37.85811 -75.61227 37980 ft 474 kts 222°
2026-05-06 10:32 37.82872 -75.63217 37990 ft 488 kts 214°
2026-05-06 10:32 37.79702 -75.64834 38007 ft 493 kts 212°
2026-05-06 10:33 37.73274 -75.67926 38023 ft 497 kts 211°
2026-05-06 10:33 37.66816 -75.71019 38017 ft 493 kts 211°
2026-05-06 10:34 37.60387 -75.74098 38029 ft 496 kts 211°
2026-05-06 10:34 37.53928 -75.77189 38035 ft 498 kts 211°
2026-05-06 10:35 37.47491 -75.80262 38032 ft 497 kts 211°
2026-05-06 10:35 37.41034 -75.83337 38013 ft 494 kts 211°
2026-05-06 10:36 37.34561 -75.86419 37984 ft 494 kts 212°
2026-05-06 10:36 37.28115 -75.89482 38009 ft 496 kts 211°
2026-05-06 10:37 37.21660 -75.92544 38010 ft 498 kts 212°
2026-05-06 10:37 37.15163 -75.95620 38012 ft 498 kts 211°
2026-05-06 10:38 37.08690 -75.98676 38036 ft 496 kts 211°
2026-05-06 10:38 37.02235 -76.01723 38027 ft 502 kts 211°
2026-05-06 10:39 36.95747 -76.04775 38041 ft 498 kts 212°
2026-05-06 10:39 36.89240 -76.07833 38042 ft 499 kts 211°
2026-05-06 10:40 36.82739 -76.10882 38013 ft 497 kts 212°
2026-05-06 10:40 36.76245 -76.13923 38039 ft 500 kts 212°
2026-05-06 10:41 36.69742 -76.16962 38033 ft 499 kts 212°
2026-05-06 10:41 36.63226 -76.20001 38045 ft 500 kts 212°
2026-05-06 10:42 36.56677 -76.23051 38033 ft 500 kts 212°
2026-05-06 10:42 36.50140 -76.26091 38038 ft 504 kts 212°
2026-05-06 10:43 36.43559 -76.29145 38054 ft 505 kts 212°
2026-05-06 10:44 36.33672 -76.33721 38046 ft 509 kts 211°
2026-05-06 10:44 36.27032 -76.36784 38060 ft 505 kts 212°
2026-05-06 10:45 36.20463 -76.39812 38047 ft 502 kts 212°
2026-05-06 10:45 36.13944 -76.42816 38060 ft 509 kts 212°
2026-05-06 10:46 36.07613 -76.45724 38073 ft 509 kts 212°
2026-05-06 10:46 36.00977 -76.48763 38063 ft 505 kts 212°
2026-05-06 10:47 35.94375 -76.51788 38053 ft 509 kts 212°
2026-05-06 10:47 35.87837 -76.55035 38056 ft 497 kts 218°
2026-05-06 10:48 35.81650 -76.58852 38041 ft 495 kts 218°
2026-05-06 10:48 35.75484 -76.62672 38031 ft 500 kts 218°
2026-05-06 10:49 35.69249 -76.66516 38069 ft 499 kts 218°
2026-05-06 10:49 35.63064 -76.70320 38061 ft 498 kts 218°
2026-05-06 10:50 35.56834 -76.74147 38055 ft 498 kts 218°
2026-05-06 10:50 35.50610 -76.77958 38052 ft 497 kts 218°
2026-05-06 10:51 35.44420 -76.81744 38051 ft 499 kts 218°
2026-05-06 10:51 35.38208 -76.85535 38067 ft 499 kts 218°
2026-05-06 10:52 35.31994 -76.89323 38053 ft 498 kts 218°
2026-05-06 10:52 35.25806 -76.93087 38087 ft 500 kts 217°
2026-05-06 10:53 35.19596 -76.96927 38078 ft 500 kts 218°
2026-05-06 10:53 35.13423 -77.00806 38094 ft 499 kts 218°
2026-05-06 10:54 35.07243 -77.04676 38088 ft 497 kts 218°
2026-05-06 10:54 35.01100 -77.08520 38095 ft 498 kts 218°
2026-05-06 10:55 34.94909 -77.12380 38089 ft 497 kts 218°
2026-05-06 10:55 34.88747 -77.16218 38080 ft 497 kts 218°
2026-05-06 10:56 34.82610 -77.20034 38081 ft 499 kts 218°
2026-05-06 10:56 34.76437 -77.23863 38074 ft 498 kts 218°
2026-05-06 10:57 34.70247 -77.27698 38048 ft 499 kts 218°
2026-05-06 10:57 34.64091 -77.31504 38061 ft 498 kts 218°
2026-05-06 10:58 34.57911 -77.35319 38036 ft 499 kts 218°
2026-05-06 10:58 34.51718 -77.39133 38056 ft 502 kts 217°
2026-05-06 10:58 34.48409 -77.40744 38043 ft 515 kts 208°
2026-05-06 10:59 34.44900 -77.41773 38062 ft 529 kts 201°
2026-05-06 10:59 34.37582 -77.43233 38065 ft 532 kts 199°
2026-05-06 11:00 34.30328 -77.44638 38054 ft 528 kts 200°
2026-05-06 11:00 34.23072 -77.46049 38084 ft 530 kts 199°
2026-05-06 11:01 34.15782 -77.47465 38037 ft 528 kts 199°
2026-05-06 11:01 34.08877 -77.48809 38066 ft 530 kts 199°
2026-05-06 11:02 34.01599 -77.50221 38043 ft 530 kts 200°
2026-05-06 11:02 33.94324 -77.51632 38064 ft 532 kts 199°
2026-05-06 11:03 33.87010 -77.53046 38057 ft 530 kts 199°
2026-05-06 11:03 33.79699 -77.54459 38057 ft 531 kts 199°
2026-05-06 11:04 33.72385 -77.55869 38053 ft 530 kts 199°
2026-05-06 11:04 33.65099 -77.57272 38048 ft 528 kts 199°
2026-05-06 11:05 33.57854 -77.58758 38054 ft 524 kts 204°
2026-05-06 11:05 33.50883 -77.61119 38054 ft 517 kts 207°
2026-05-06 11:06 33.43965 -77.63552 38061 ft 520 kts 207°
2026-05-06 11:06 33.37013 -77.65985 38077 ft 518 kts 207°
2026-05-06 11:07 33.30077 -77.68410 38082 ft 519 kts 207°
2026-05-06 11:07 33.23095 -77.70845 38083 ft 522 kts 206°
2026-05-06 11:08 33.16119 -77.73271 38089 ft 523 kts 206°
2026-05-06 11:08 33.09147 -77.75691 38087 ft 522 kts 206°
2026-05-06 11:09 33.02561 -77.77973 38089 ft 521 kts 206°
2026-05-06 11:09 32.95617 -77.80375 38085 ft 520 kts 206°
2026-05-06 11:10 32.88628 -77.82792 38078 ft 524 kts 206°
2026-05-06 11:10 32.81643 -77.85200 38069 ft 522 kts 206°
2026-05-06 11:11 32.74706 -77.87586 38065 ft 518 kts 206°
2026-05-06 11:11 32.67734 -77.89985 38069 ft 522 kts 206°
2026-05-06 11:12 32.60716 -77.92301 38077 ft 523 kts 205°
2026-05-06 11:12 32.53704 -77.94566 38066 ft 521 kts 205°
2026-05-06 11:13 32.46682 -77.96835 38081 ft 523 kts 205°
2026-05-06 11:13 32.39666 -77.99101 38079 ft 523 kts 205°
2026-05-06 11:14 32.32641 -78.01368 38070 ft 524 kts 205°
2026-05-06 11:14 32.25613 -78.03632 38078 ft 524 kts 205°
2026-05-06 11:15 32.18558 -78.05904 38080 ft 526 kts 205°
2026-05-06 11:15 32.11484 -78.08174 38086 ft 524 kts 205°
2026-05-06 11:16 32.04733 -78.10342 38076 ft 525 kts 205°
2026-05-06 11:16 31.97681 -78.12601 38090 ft 528 kts 204°
2026-05-06 11:17 31.90639 -78.14851 38087 ft 526 kts 205°
2026-05-06 11:17 31.83568 -78.17107 38062 ft 522 kts 205°
2026-05-06 11:18 31.76497 -78.19363 38059 ft 523 kts 205°
2026-05-06 11:18 31.69413 -78.21619 38076 ft 525 kts 205°
2026-05-06 11:19 31.62361 -78.23859 38073 ft 524 kts 205°
2026-05-06 11:19 31.55340 -78.26086 38061 ft 523 kts 205°
2026-05-06 11:20 31.48306 -78.28316 38067 ft 523 kts 205°
2026-05-06 11:20 31.41263 -78.30627 38074 ft 522 kts 206°
2026-05-06 11:21 31.34266 -78.32983 38071 ft 523 kts 205°
2026-05-06 11:21 31.27257 -78.35332 38071 ft 520 kts 205°
2026-05-06 11:22 31.20303 -78.37656 38068 ft 520 kts 206°
2026-05-06 11:22 31.13307 -78.39993 38074 ft 522 kts 205°
2026-05-06 11:23 31.06312 -78.42321 38069 ft 521 kts 205°
2026-05-06 11:23 30.99329 -78.44643 38078 ft 519 kts 205°
2026-05-06 11:24 30.92397 -78.46944 38072 ft 519 kts 205°
2026-05-06 11:24 30.85439 -78.49251 38058 ft 522 kts 205°
2026-05-06 11:25 30.78441 -78.51565 38049 ft 519 kts 205°
2026-05-06 11:25 30.71470 -78.53868 38061 ft 520 kts 205°
2026-05-06 11:26 30.64624 -78.56126 38065 ft 521 kts 205°
2026-05-06 11:26 30.57771 -78.58383 38064 ft 523 kts 205°
2026-05-06 11:27 30.50756 -78.60690 38071 ft 522 kts 205°
2026-05-06 11:27 30.43761 -78.62985 38073 ft 519 kts 205°
2026-05-06 11:28 30.37116 -78.65166 38070 ft 522 kts 204°
2026-05-06 11:28 30.30113 -78.67460 38087 ft 523 kts 204°
2026-05-06 11:29 30.23101 -78.69752 38086 ft 525 kts 204°
2026-05-06 11:29 30.16077 -78.72044 38088 ft 525 kts 204°
2026-05-06 11:30 30.09034 -78.74339 38086 ft 523 kts 204°
2026-05-06 11:30 30.02100 -78.76596 38081 ft 523 kts 204°
2026-05-06 11:31 29.95330 -78.78796 38082 ft 522 kts 204°
2026-05-06 11:31 29.88288 -78.81081 38073 ft 524 kts 204°
2026-05-06 11:32 29.81278 -78.83353 38070 ft 525 kts 204°
2026-05-06 11:32 29.74025 -78.84892 38074 ft 537 kts 194°
2026-05-06 11:33 29.66623 -78.85887 38072 ft 537 kts 194°
2026-05-06 11:33 29.59189 -78.86882 38073 ft 535 kts 193°
2026-05-06 11:34 29.51758 -78.87878 38071 ft 535 kts 193°
2026-05-06 11:34 29.44351 -78.88871 38076 ft 536 kts 193°
2026-05-06 11:35 29.36970 -78.89861 38075 ft 536 kts 193°
2026-05-06 11:35 29.29520 -78.90858 38073 ft 533 kts 193°
2026-05-06 11:36 29.22099 -78.91852 38074 ft 536 kts 193°
2026-05-06 11:36 29.14697 -78.92840 38068 ft 534 kts 193°
2026-05-06 11:37 29.07307 -78.93827 38077 ft 534 kts 193°
2026-05-06 11:37 28.99878 -78.94817 38073 ft 535 kts 193°
2026-05-06 11:38 28.92522 -78.95795 38078 ft 534 kts 193°
2026-05-06 11:38 28.85081 -78.96784 38067 ft 535 kts 193°
2026-05-06 11:39 28.77661 -78.97768 38066 ft 534 kts 193°
2026-05-06 11:39 28.70263 -78.98749 38071 ft 537 kts 193°
2026-05-06 11:40 28.62839 -78.99731 38066 ft 534 kts 193°
2026-05-06 11:40 28.55440 -79.00710 38068 ft 536 kts 193°
2026-05-06 11:41 28.48030 -79.01687 38069 ft 536 kts 193°
2026-05-06 11:41 28.40590 -79.02666 38075 ft 535 kts 193°
2026-05-06 11:42 28.33258 -79.03950 38076 ft 526 kts 202°
2026-05-06 11:42 28.26337 -79.06446 38081 ft 523 kts 205°
2026-05-06 11:43 28.19397 -79.09044 38074 ft 523 kts 205°
2026-05-06 11:43 28.12485 -79.11623 38075 ft 524 kts 205°
2026-05-06 11:44 28.02078 -79.15498 38087 ft 526 kts 205°
2026-05-06 11:44 27.95074 -79.18098 38092 ft 523 kts 205°
2026-05-06 11:45 27.88158 -79.20664 38079 ft 526 kts 205°
2026-05-06 11:45 27.81172 -79.23250 38079 ft 524 kts 205°
2026-05-06 11:46 27.74229 -79.25818 38071 ft 524 kts 205°
2026-05-06 11:46 27.67426 -79.28331 38068 ft 524 kts 205°
2026-05-06 11:47 27.63958 -79.29607 37685 ft 516 kts 205°
2026-05-06 11:47 27.60551 -79.30864 36572 ft 520 kts 205°
2026-05-06 11:47 27.57110 -79.32134 35504 ft 523 kts 205°
2026-05-06 11:47 27.53658 -79.33406 34574 ft 523 kts 204°
2026-05-06 11:48 27.50164 -79.34691 33599 ft 523 kts 204°
2026-05-06 11:48 27.46699 -79.35965 32676 ft 524 kts 204°
2026-05-06 11:48 27.43238 -79.37238 31724 ft 526 kts 204°
2026-05-06 11:48 27.39758 -79.38516 30742 ft 528 kts 204°
2026-05-06 11:49 27.36289 -79.39788 30136 ft 521 kts 204°
2026-05-06 11:49 27.32832 -79.41054 29581 ft 514 kts 204°
2026-05-06 11:49 27.29484 -79.42279 28975 ft 508 kts 203°
2026-05-06 11:49 27.26096 -79.43520 28315 ft 504 kts 203°
2026-05-06 11:50 27.22783 -79.44731 27654 ft 499 kts 203°
2026-05-06 11:50 27.19513 -79.45927 27023 ft 494 kts 203°
2026-05-06 11:50 27.16225 -79.47130 26361 ft 490 kts 203°
2026-05-06 11:50 27.13043 -79.48292 25709 ft 485 kts 203°
2026-05-06 11:51 27.09810 -79.49473 25036 ft 480 kts 203°
2026-05-06 11:51 27.06642 -79.50629 24373 ft 476 kts 202°
2026-05-06 11:51 27.03525 -79.51765 23744 ft 471 kts 202°
2026-05-06 11:51 27.00452 -79.52885 23405 ft 465 kts 202°
2026-05-06 11:52 26.97358 -79.54014 23076 ft 466 kts 202°
2026-05-06 11:52 26.94252 -79.55146 22706 ft 464 kts 202°
2026-05-06 11:52 26.91172 -79.56266 22319 ft 461 kts 202°
2026-05-06 11:52 26.88122 -79.57375 22017 ft 456 kts 202°
2026-05-06 11:53 26.85092 -79.58470 22020 ft 461 kts 202°
2026-05-06 11:53 26.82037 -79.59573 21930 ft 461 kts 202°
2026-05-06 11:53 26.79004 -79.60664 21623 ft 452 kts 202°
2026-05-06 11:53 26.76026 -79.61736 21250 ft 443 kts 202°
2026-05-06 11:54 26.73120 -79.62781 20817 ft 436 kts 202°
2026-05-06 11:54 26.70240 -79.63818 20376 ft 429 kts 202°
2026-05-06 11:54 26.67419 -79.64832 19934 ft 423 kts 202°
2026-05-06 11:54 26.64635 -79.65833 19480 ft 416 kts 202°
2026-05-06 11:55 26.61888 -79.66821 19065 ft 409 kts 201°
2026-05-06 11:55 26.59230 -79.67753 18883 ft 396 kts 201°
2026-05-06 11:55 26.56605 -79.68672 18398 ft 392 kts 201°
2026-05-06 11:55 26.54009 -79.69581 17833 ft 392 kts 201°
2026-05-06 11:56 26.51399 -79.70493 17255 ft 391 kts 200°
2026-05-06 11:56 26.48819 -79.71414 16671 ft 389 kts 204°
2026-05-06 11:56 26.46400 -79.72714 16139 ft 381 kts 215°
2026-05-06 11:56 26.44333 -79.74470 15978 ft 362 kts 226°
2026-05-06 11:57 26.42603 -79.76450 15968 ft 355 kts 230°
2026-05-06 11:57 26.40900 -79.78473 15965 ft 357 kts 230°
2026-05-06 11:57 26.39204 -79.80505 15964 ft 357 kts 230°
2026-05-06 11:57 26.37654 -79.82655 15837 ft 357 kts 237°
2026-05-06 11:58 26.36236 -79.84905 15620 ft 351 kts 238°
2026-05-06 11:58 26.34864 -79.87105 15399 ft 342 kts 238°
2026-05-06 11:58 26.33524 -79.89255 15177 ft 333 kts 238°
2026-05-06 11:58 26.32211 -79.91359 14952 ft 324 kts 238°
2026-05-06 11:59 26.30954 -79.93367 14773 ft 315 kts 238°
2026-05-06 11:59 26.29703 -79.95365 14540 ft 309 kts 238°
2026-05-06 11:59 26.28473 -79.97329 14264 ft 308 kts 238°
2026-05-06 11:59 26.27259 -79.99264 13985 ft 307 kts 238°
2026-05-06 12:00 26.25921 -80.01109 13686 ft 309 kts 223°
2026-05-06 12:00 26.24055 -80.02300 13394 ft 314 kts 202°
2026-05-06 12:00 26.21930 -80.02962 13110 ft 315 kts 195°
2026-05-06 12:00 26.19781 -80.03473 12824 ft 313 kts 194°
2026-05-06 12:01 26.17663 -80.03953 12540 ft 312 kts 194°
2026-05-06 12:01 26.15534 -80.04434 12254 ft 310 kts 194°
2026-05-06 12:01 26.13421 -80.04919 11968 ft 309 kts 194°
2026-05-06 12:01 26.11284 -80.05405 11678 ft 308 kts 194°
2026-05-06 12:02 26.09211 -80.05878 11396 ft 306 kts 194°
2026-05-06 12:02 26.07107 -80.06356 11120 ft 304 kts 194°
2026-05-06 12:02 26.05040 -80.06863 10857 ft 302 kts 196°
2026-05-06 12:02 26.03001 -80.07407 10593 ft 298 kts 197°
2026-05-06 12:03 26.00997 -80.07938 10333 ft 294 kts 196°
2026-05-06 12:03 25.99016 -80.08456 10072 ft 292 kts 196°
2026-05-06 12:03 25.97013 -80.08978 9807 ft 291 kts 196°
2026-05-06 12:03 25.95039 -80.09490 9544 ft 290 kts 196°
2026-05-06 12:04 25.93100 -80.10076 9267 ft 286 kts 207°
2026-05-06 12:04 25.91499 -80.11300 8999 ft 280 kts 226°
2026-05-06 12:04 25.90138 -80.12845 8735 ft 278 kts 229°
2026-05-06 12:04 25.88864 -80.14433 8466 ft 276 kts 236°
2026-05-06 12:05 25.88088 -80.16356 8182 ft 271 kts 261°
2026-05-06 12:05 25.87888 -80.18444 7922 ft 272 kts 268°
2026-05-06 12:05 25.87818 -80.20530 7642 ft 269 kts 269°
2026-05-06 12:05 25.87751 -80.22588 7329 ft 268 kts 269°
2026-05-06 12:06 25.87682 -80.24670 7016 ft 267 kts 269°
2026-05-06 12:06 25.87615 -80.26727 6703 ft 266 kts 269°
2026-05-06 12:06 25.87681 -80.28760 6362 ft 264 kts 284°
2026-05-06 12:06 25.88351 -80.30653 6023 ft 263 kts 297°
2026-05-06 12:07 25.89198 -80.32442 5682 ft 263 kts 298°
2026-05-06 12:07 25.90074 -80.34225 5340 ft 263 kts 299°
2026-05-06 12:07 25.90958 -80.36035 4993 ft 263 kts 299°
2026-05-06 12:07 25.91828 -80.37820 4654 ft 264 kts 299°
2026-05-06 12:08 25.92694 -80.39602 4319 ft 264 kts 299°
2026-05-06 12:08 25.93491 -80.41438 4026 ft 261 kts 286°
2026-05-06 12:08 25.93706 -80.43364 3991 ft 245 kts 273°
2026-05-06 12:08 25.93714 -80.45202 3990 ft 226 kts 271°
2026-05-06 12:09 25.93704 -80.46796 3951 ft 213 kts 270°
2026-05-06 12:09 25.93396 -80.48366 3721 ft 209 kts 241°
2026-05-06 12:09 25.92397 -80.49495 3486 ft 205 kts 209°
2026-05-06 12:09 25.91060 -80.49893 3277 ft 199 kts 178°
2026-05-06 12:10 25.89756 -80.49474 3040 ft 194 kts 145°
2026-05-06 12:10 25.88862 -80.48394 3024 ft 192 kts 119°
2026-05-06 12:10 25.88450 -80.46996 3023 ft 189 kts 103°
2026-05-06 12:10 25.87938 -80.45648 2995 ft 190 kts 118°
2026-05-06 12:11 25.87258 -80.44357 2863 ft 195 kts 120°
2026-05-06 12:11 25.86564 -80.43092 2615 ft 190 kts 118°
2026-05-06 12:11 25.85923 -80.41795 2361 ft 187 kts 119°
2026-05-06 12:11 25.85273 -80.40582 2119 ft 183 kts 118°
2026-05-06 12:12 25.84646 -80.39347 1881 ft 180 kts 119°
2026-05-06 12:12 25.84029 -80.38151 1645 ft 175 kts 119°
2026-05-06 12:12 25.83442 -80.37018 1420 ft 164 kts 119°
2026-05-06 12:12 25.82900 -80.35970 1209 ft 154 kts 119°
2026-05-06 12:13 25.82375 -80.34957 1008 ft 150 kts 120°
2026-05-06 12:13 25.81834 -80.33961 779 ft 151 kts 119°
2026-05-06 12:13 25.81310 -80.32942 567 ft 151 kts 118°
2026-05-06 12:13 25.80815 -80.31953 411 ft 145 kts 118°
2026-05-06 12:14 25.80312 -80.30971 221 ft 144 kts 118°
2026-05-06 12:14 25.79827 -80.30040 50 ft 135 kts 119°
2026-05-06 12:14 25.79413 -80.29221 20 ft 99 kts 119°
2026-05-06 12:14 25.79180 -80.28763 20 ft 51 kts 119°
2026-05-06 12:15 25.79022 -80.28452 20 ft 37 kts 121°
2026-05-06 12:15 25.78935 -80.28267 20 ft 23 kts 109°
2026-05-06 12:15 25.78906 -80.28108 20 ft 13 kts 92°
2026-05-06 12:15 25.78906 -80.28027 20 ft 8 kts 98°
2026-05-06 12:16 25.78883 -80.27964 20 ft 9 kts 117°
2026-05-06 12:16 25.78861 -80.27887 20 ft 13 kts 91°
2026-05-06 12:16 25.78872 -80.27782 20 ft 14 kts 81°
2026-05-06 12:16 25.78881 -80.27676 20 ft 13 kts 84°
2026-05-06 12:17 25.78896 -80.27576 20 ft 12 kts 78°
2026-05-06 12:17 25.78912 -80.27512 20 ft 7 kts 63°
2026-05-06 12:17 25.78947 -80.27464 20 ft 8 kts 48°
2026-05-06 12:17 25.78983 -80.27421 20 ft 4 kts 46°
2026-05-06 12:18 25.78998 -80.27403 20 ft 2 kts 47°
2026-05-06 12:18 25.79003 -80.27398 20 ft 0 kts 47°